Location: Unspecified
(0.0000°N, 0.0000°E)
Time: 03:28:35
(UTC+00:00)

OTV 5 (USA 277) - Pass Details

Date: 22 January 2018
Orbit: 404 x 417 km, 43.0° (Epoch: 07 September)

Event Time Altitude Azimuth Distance (km) Brightness Sun altitude
Exits shadow 04:14:30 16° 149° (SSE) 1,128 ? -27.4°
Drops below altitude 10° 04:15:19 10° 145° (SE) 1,450 ? -27.2°
Sets 04:17:26 0° 141° (SE) 2,311 ? -26.7°
